| time (UTC) | temp C | wind direction | speed KPH | gust KPH | rain 1hr cm | rain 24hr cm | rain mn cm | humidity % | barometer mb |
| 20260506073032 | 13 | 177 | 0.0 | 0.0 | 0.00 | 2.26 | 1.09 | 97 | 1009.9 |
| 20260506071512 | 13 | 166 | 0.0 | 0.0 | 0.00 | 2.26 | 1.09 | 97 | 1009.9 |
| 20260506061558 | 13 | 155 | 0.0 | 0.0 | 0.00 | 2.59 | 1.09 | 97 | 1010.1 |
| 20260506050104 | 12 | 119 | 0.0 | 0.0 | 0.71 | 2.77 | 1.07 | 97 | 1010.6 |
| 20260506044525 | 12 | 319 | 0.0 | 0.0 | 0.69 | 2.79 | 1.02 | 97 | 1010.9 |
| 20260506043016 | 12 | 319 | 0.0 | 0.0 | 0.03 | 2.13 | 0.36 | 97 | 1011.1 |
| 20260506041557 | 12 | 319 | 0.0 | 0.0 | 0.03 | 2.13 | 0.36 | 97 | 1011.0 |
| 20260506034526 | 12 | 319 | 0.0 | 0.0 | 0.00 | 2.11 | 0.33 | 97 | 1011.2 |
| 20260506033056 | 12 | 319 | 0.0 | 0.0 | 0.03 | 2.11 | 0.33 | 97 | 1011.3 |
| 20260506031520 | 12 | 319 | 0.0 | 0.0 | 0.03 | 2.11 | 0.33 | 97 | 1011.3 |
| 20260506024534 | 12 | 319 | 0.0 | 0.0 | 0.05 | 2.11 | 0.33 | 97 | 1012.0 |
| 20260506023001 | 12 | 319 | 0.0 | 0.0 | 0.03 | 2.08 | 0.30 | 97 | 1012.1 |
| 20260506021531 | 12 | 319 | 0.0 | 0.0 | 0.03 | 2.08 | 0.30 | 97 | 1012.4 |
| 20260506020106 | 12 | 319 | 0.0 | 0.0 | 0.20 | 2.06 | 0.28 | 97 | 1012.3 |
| 20260506014550 | 12 | 319 | 0.0 | 0.0 | 0.23 | 2.06 | 0.28 | 97 | 1012.5 |
| 20260506013014 | 12 | 319 | 0.0 | 0.0 | 0.23 | 2.06 | 0.28 | 97 | 1012.4 |
| 20260506011547 | 12 | 319 | 0.0 | 0.0 | 0.23 | 2.06 | 0.28 | 97 | 1012.5 |
| 20260506010036 | 12 | 319 | 0.0 | 0.0 | 0.05 | 1.85 | 0.08 | 97 | 1012.8 |
| 20260506004501 | 12 | 319 | 0.0 | 0.0 | 0.05 | 1.83 | 0.05 | 97 | 1013.0 |
| 20260506003030 | 12 | 319 | 0.0 | 0.0 | 0.05 | 1.83 | 0.05 | 97 | 1013.1 |
| 20260506001608 | 12 | 319 | 0.0 | 0.0 | 0.05 | 1.83 | 0.05 | 97 | 1013.1 |
| 20260506000125 | 12 | 319 | 0.0 | 0.0 | 0.03 | 1.80 | 0.03 | 97 | 1013.2 |
| 20260505234512 | 12 | 319 | 0.0 | 0.0 | 0.00 | 1.78 | 0.00 | 97 | 1013.5 |
| 20260505233022 | 12 | 319 | 0.0 | 0.0 | 0.00 | 1.78 | 0.00 | 97 | 1013.6 |
| 20260505231529 | 12 | 319 | 0.0 | 0.0 | 0.00 | 1.78 | 0.00 | 97 | 1013.7 |
| 20260505230048 | 12 | 319 | 0.0 | 0.0 | 0.00 | 1.78 | 0.00 | 97 | 1013.8 |
| 20260505224507 | 12 | 319 | 0.0 | 0.0 | 0.00 | 1.78 | 0.00 | 97 | 1014.0 |
| 20260505223021 | 12 | 319 | 0.0 | 0.0 | 0.00 | 1.78 | 0.00 | 96 | 1014.2 |
| 20260505221557 | 12 | 319 | 0.0 | 0.0 | 0.00 | 1.78 | 0.00 | 96 | 1014.0 |
| 20260505220107 | 12 | 319 | 0.0 | 0.0 | 0.00 | 1.78 | 0.00 | 96 | 1014.1 |
| 20260505214523 | 12 | 319 | 0.0 | 0.0 | 0.03 | 1.78 | 1.78 | 97 | 1014.3 |
| 20260505213051 | 12 | 319 | 0.0 | 0.0 | 0.05 | 1.78 | 1.78 | 96 | 1014.5 |
| 20260505211528 | 12 | 319 | 0.0 | 0.0 | 0.08 | 1.78 | 1.78 | 96 | 1014.7 |
| 20260505210019 | 12 | 319 | 0.0 | 0.0 | 0.13 | 1.78 | 1.78 | 96 | 1014.8 |
| 20260505204539 | 12 | 319 | 0.0 | 0.0 | 0.18 | 1.75 | 1.75 | 96 | 1014.8 |
| 20260505203048 | 12 | 319 | 0.0 | 0.0 | 0.23 | 1.73 | 1.73 | 96 | 1015.0 |
| 20260505201514 | 12 | 319 | 0.0 | 0.0 | 0.23 | 1.70 | 1.70 | 96 | 1014.9 |
| 20260505200011 | 12 | 319 | 0.0 | 0.0 | 0.23 | 1.65 | 1.65 | 96 | 1014.8 |
| 20260505194525 | 12 | 319 | 0.0 | 0.0 | 0.20 | 1.57 | 1.57 | 96 | 1014.7 |
| 20260505193036 | 12 | 319 | 0.0 | 0.0 | 0.18 | 1.50 | 1.50 | 96 | 1014.7 |
| 20260505191539 | 12 | 319 | 0.0 | 0.0 | 0.20 | 1.45 | 1.45 | 95 | 1014.6 |
| 20260505190039 | 12 | 319 | 0.0 | 0.0 | 0.15 | 1.42 | 1.42 | 95 | 1014.4 |
| 20260505184552 | 12 | 319 | 0.0 | 0.0 | 0.15 | 1.37 | 1.37 | 95 | 1014.4 |
| 20260505183016 | 12 | 319 | 0.0 | 0.0 | 0.13 | 1.32 | 1.32 | 95 | 1014.4 |
| 20260505181516 | 12 | 319 | 0.0 | 0.0 | 0.13 | 1.27 | 1.27 | 95 | 1014.3 |
| 20260505180016 | 11 | 319 | 0.0 | 0.0 | 0.15 | 1.27 | 1.27 | 94 | 1014.2 |
| 20260505174536 | 12 | 319 | 0.0 | 0.0 | 0.13 | 1.22 | 1.22 | 94 | 1014.4 |
| 20260505173057 | 12 | 310 | 0.0 | 0.0 | 0.15 | 1.19 | 1.19 | 94 | 1014.4 |
| 20260505171530 | 12 | 310 | 0.0 | 0.0 | 0.13 | 1.14 | 1.14 | 94 | 1014.3 |
| 20260505170021 | 12 | 306 | 0.0 | 0.0 | 0.10 | 1.12 | 1.12 | 94 | 1014.4 |
| 20260505164535 | 12 | 305 | 0.0 | 1.6 | 0.08 | 1.09 | 1.09 | 94 | 1014.5 |
| 20260505163048 | 12 | 310 | 0.0 | 0.0 | 0.05 | 1.04 | 1.04 | 93 | 1014.6 |
| 20260505161510 | 12 | 306 | 0.0 | 0.0 | 0.03 | 1.02 | 1.02 | 93 | 1014.5 |
| 20260505153018 | 12 | 310 | 0.0 | 0.0 | 0.03 | 0.99 | 0.99 | 93 | 1014.9 |
| 20260505151517 | 12 | 310 | 0.0 | 0.0 | 0.03 | 0.99 | 0.99 | 92 | 1014.7 |
| 20260505124555 | 12 | 350 | 0.0 | 0.0 | 0.03 | 0.97 | 0.97 | 91 | 1015.1 |
| 20260505123017 | 12 | 306 | 0.0 | 1.6 | 0.03 | 0.97 | 0.97 | 91 | 1015.1 |
| 20260505121541 | 12 | 304 | 0.0 | 0.0 | 0.05 | 0.97 | 0.97 | 90 | 1015.1 |
| 20260505120117 | 13 | 297 | 0.0 | 0.0 | 0.03 | 0.94 | 0.94 | 91 | 1015.1 |
| 20260505114525 | 13 | 308 | 0.0 | 0.0 | 0.03 | 0.94 | 0.94 | 91 | 1015.2 |
| 20260505113053 | 13 | 308 | 0.0 | 0.0 | 0.05 | 0.94 | 0.94 | 91 | 1015.2 |
| 20260505111524 | 13 | 306 | 0.0 | 1.6 | 0.05 | 0.91 | 0.91 | 90 | 1015.3 |
| 20260505101525 | 12 | 8 | 0.0 | 0.0 | 0.00 | 0.86 | 0.86 | 90 | 1015.3 |
| 20260505100023 | 12 | 47 | 0.0 | 0.0 | 0.03 | 0.86 | 0.86 | 88 | 1015.5 |
| 20260505094535 | 12 | 30 | 0.0 | 4.8 | 0.03 | 0.86 | 0.86 | 88 | 1015.6 |
| 20260505093102 | 12 | 284 | 0.0 | 0.0 | 0.05 | 0.86 | 0.86 | 90 | 1015.6 |
| 20260505091600 | 12 | 40 | 0.0 | 3.2 | 0.05 | 0.86 | 0.86 | 91 | 1015.5 |
| 20260505084528 | 12 | 13 | 0.0 | 1.6 | 0.05 | 0.84 | 0.84 | 91 | 1015.4 |
| 20260505083053 | 12 | 333 | 0.0 | 12.9 | 0.05 | 0.81 | 0.81 | 91 | 1015.2 |
| 20260505081503 | 12 | 341 | 0.0 | 0.0 | 0.13 | 0.81 | 0.81 | 92 | 1015.2 |
| 20260505080114 | 12 | 8 | 0.0 | 1.6 | 0.18 | 0.81 | 0.81 | 92 | 1015.1 |
| 20260505074530 | 11 | 13 | 0.0 | 1.6 | 0.28 | 0.79 | 0.79 | 91 | 1015.3 |